Location: *
(44.1392°N, 4.8079°E)
Time: 13:52:18
(UTC+00:00)

Lacrosse 5 rocket - Pass Details

Date: 26 October 2021
Orbit: 459 x 633 km, 57.0° (Epoch: 04 December)

Event Time Altitude Azimuth Distance (km) Brightness Sun altitude
Exits shadow 04:39:46 12° 330° (NNW) 1,765 3.6 -16.7°
Maximum altitude 04:41:36 15° 358° (N) 1,620 3.7 -16.4°
Drops below altitude 10° 04:44:16 10° 35° (NE) 1,969 4.6 -15.9°
Sets 04:47:29 0° 58° (ENE) 2,900 6.0 -15.3°
